Location: Lisboa
(38.7223°N, 9.1393°W)
Time: 02:02:00
(UTC+00:00)

BlueWalker 3 - Visible Passes

Search period start: 28 February 2024 00:00
Search period end: 09 March 2024 00:00
Orbit: 485 x 500 km, 53.2° (Epoch: 27 February)

Date Brightness Start Highest point End Pass type
(mag) Time Alt. Az. Time Alt. Az. Time Alt. Az.
28 Feb 4.2 20:26:07 10° NNW 20:27:29 16° N 20:27:29 16° N visible
29 Feb 3.8 20:02:16 10° NNW 20:04:42 18° NNE 20:04:42 18° NNE visible
01 Mar 3.7 19:38:25 10° NNW 19:41:01 17° NNE 19:41:57 16° NE visible
01 Mar 5.0 21:15:58 10° NW 21:16:26 13° NW 21:16:26 13° NW visible
02 Mar 3.8 19:14:33 10° NNW 19:17:06 17° NNE 19:19:15 12° ENE visible
02 Mar 4.0 20:52:04 10° NW 20:53:44 25° NW 20:53:44 25° NW visible
03 Mar 2.5 20:28:09 10° NW 20:31:07 53° NW 20:31:07 53° NW visible
04 Mar 1.7 20:04:14 10° NW 20:08:01 81° NE 20:08:36 61° ESE visible
05 Mar 1.8 19:40:18 10° NW 19:44:04 77° NE 19:46:10 25° SE visible
05 Mar 5.1 21:20:37 10° WSW 21:20:41 10° WSW 21:20:41 10° WSW visible
06 Mar 1.8 19:16:20 10° NW 19:20:07 74° NE 19:23:52 10° SE visible
06 Mar 4.7 20:56:28 10° WSW 20:57:54 12° SW 20:58:24 12° SW visible
07 Mar 4.7 20:32:19 10° W 20:33:57 12° SW 20:35:34 10° SSW visible
08 Mar 4.8 20:08:11 10° W 20:09:58 13° SW 20:11:46 10° SSW visible
